Simultaneous Nadir Overpasses (SNOs) Predictions

Prediction of SNOs between GOES-16 and NOAA-20 Satellite Orbit:

Table of predicted SNOs for the next 14.0 days since TLE Epoch: 2/4/2023
Index Date Time (GOES-16) GOES-16 Lat,Lon NOAA-20 Lat,Lon Distance(km) Time Diff (sec)
1 02/05/2023 06:44:46 -0.05, -75.19 0.92, -79.45 485.31 80
2 02/06/2023 06:23:21 -0.05, -75.20 -0.11, -74.92 31.94 80
3 02/08/2023 18:26:32 0.04, -75.22 -0.08, -75.68 53.27 80
4 02/09/2023 18:10:28 0.04, -75.23 0.96, -71.15 464.75 80
5 02/11/2023 06:32:15 -0.04, -75.25 0.20, -76.42 132.84 80
6 02/12/2023 06:10:49 -0.04, -75.27 -0.78, -71.88 385.20 80
7 02/13/2023 18:32:46 0.04, -75.28 -0.38, -77.19 216.98 80
8 02/14/2023 18:16:40 0.03, -75.29 0.60, -72.65 301.25 80
9 02/16/2023 06:38:28 -0.03, -75.32 0.56, -77.91 295.86 80
10 02/17/2023 06:17:02 -0.01, -75.33 -0.43, -73.37 222.52 80
